Total_Precipitation_Accumulation
0.67 0.83 1.01 1.13 1.33 1.51 1.73 1.71 1.73 1.85 2.01 2.22 2.21 2.33 2.57 2.94 3.22 3.40 3.49 3.50 3.44 3.44 3.27 3.14 3.12 2.94 2.72 2.55 2.45 2.34 2.23 1.95 1.70 1.63 1.42 1.14 0.97 0.91 0.85 0.81 0.76 0.71 0.68
0.59 0.87 1.05 1.30 1.51 1.67 1.80 1.91 1.97 2.27 2.68 3.04 3.44 3.78 3.97 3.99 4.20 4.28 4.27 4.13 4.00 3.85 3.63 3.55 3.38 3.12 2.93 2.71 2.47 2.30 2.24 2.03 1.82 1.77 1.72 1.40 1.10 0.84 0.67 0.64 0.60 0.56 0.53
0.64 0.80 1.00 1.31 1.53 1.68 1.87 2.01 2.27 2.89 3.66 3.98 4.27 4.84 5.12 4.88 4.65 4.51 4.42 4.33 4.32 4.25 4.01 3.88 3.60 3.32 3.01 2.73 2.48 2.26 2.13 2.04 1.92 1.76 1.79 1.60 1.29 0.95 0.72 0.56 0.49 0.46 0.48
0.71 0.85 1.00 1.28 1.58 1.88 1.96 2.13 2.63 3.38 4.03 4.47 4.99 5.49 5.69 5.68 5.56 5.10 4.63 4.19 3.86 3.68 3.55 3.41 3.22 2.99 2.69 2.45 2.24 2.04 1.91 1.94 1.84 1.69 1.53 1.41 1.21 1.03 0.85 0.64 0.52 0.48 0.49
0.71 0.85 0.98 1.19 1.36 1.63 2.00 2.27 2.81 3.49 4.15 4.83 5.45 5.83 6.03 5.97 5.58 4.82 4.07 3.64 3.36 3.07 2.83 2.68 2.55 2.38 2.19 2.01 1.89 1.82 1.72 1.64 1.53 1.40 1.31 1.27 1.15 0.95 0.80 0.72 0.61 0.57 0.54
0.58 0.71 0.89 0.99 1.26 1.52 1.82 2.24 2.55 3.17 3.83 4.40 4.90 5.06 5.20 5.13 4.71 4.25 3.74 3.37 2.96 2.47 2.11 1.90 1.75 1.64 1.54 1.52 1.49 1.47 1.42 1.35 1.29 1.21 1.12 1.06 1.04 0.96 0.86 0.75 0.67 0.65 0.61
0.52 0.73 0.97 0.92 1.15 1.46 1.80 2.18 2.58 2.97 3.47 3.96 4.41 4.64 4.75 4.55 4.08 3.67 3.27 2.83 2.39 1.99 1.64 1.43 1.33 1.29 1.25 1.18 1.19 1.19 1.15 1.12 1.11 1.09 1.02 0.97 0.92 0.88 0.86 0.86 0.83 0.73 0.63
0.56 0.68 0.86 0.93 1.15 1.37 1.66 2.02 2.35 2.68 2.88 3.07 3.38 3.60 3.74 3.58 3.25 2.77 2.33 2.04 1.79 1.54 1.34 1.20 1.12 0.99 0.86 0.83 0.86 0.89 0.91 0.91 0.95 0.96 0.96 0.99 0.96 0.90 0.84 0.83 0.87 0.90 0.83
0.61 0.66 0.78 0.89 1.12 1.41 1.66 1.92 2.06 2.22 2.38 2.49 2.54 2.59 2.69 2.58 2.34 2.07 1.79 1.52 1.27 1.08 0.94 0.83 0.76 0.72 0.64 0.62 0.64 0.68 0.71 0.74 0.79 0.84 0.89 0.97 1.04 1.05 0.99 0.93 0.90 0.92 0.95
0.65 0.65 0.72 0.79 0.89 1.02 1.29 1.51 1.63 1.72 1.78 1.83 1.87 1.88 1.89 1.81 1.71 1.56 1.36 1.14 0.99 0.84 0.71 0.60 0.52 0.52 0.52 0.52 0.49 0.52 0.55 0.57 0.61 0.67 0.74 0.83 0.93 1.02 1.06 1.08 1.02 0.93 0.88
0.70 0.65 0.67 0.67 0.71 0.76 0.92 1.12 1.27 1.30 1.38 1.44 1.41 1.35 1.41 1.36 1.28 1.23 1.14 0.99 0.89 0.78 0.67 0.59 0.55 0.52 0.47 0.44 0.45 0.44 0.46 0.52 0.54 0.53 0.58 0.66 0.71 0.79 0.85 0.87 0.84 0.80 0.73
0.73 0.65 0.60 0.55 0.58 0.64 0.69 0.79 0.90 0.91 0.95 0.99 1.00 1.05 1.09 1.10 1.05 0.95 0.85 0.71 0.62 0.58 0.54 0.48 0.48 0.48 0.44 0.42 0.41 0.38 0.37 0.36 0.37 0.38 0.44 0.50 0.51 0.56 0.56 0.57 0.55 0.52 0.48
0.83 0.68 0.55 0.47 0.49 0.57 0.61 0.65 0.69 0.71 0.72 0.71 0.74 0.82 0.85 0.87 0.83 0.72 0.68 0.61 0.52 0.49 0.48 0.44 0.41 0.40 0.39 0.36 0.34 0.33 0.29 0.25 0.25 0.26 0.29 0.34 0.36 0.37 0.36 0.37 0.35 0.36 0.35
0.95 0.75 0.64 0.56 0.56 0.61 0.60 0.61 0.62 0.60 0.61 0.62 0.67 0.72 0.72 0.72 0.69 0.60 0.51 0.48 0.44 0.44 0.45 0.41 0.36 0.30 0.27 0.25 0.27 0.30 0.25 0.21 0.20 0.20 0.21 0.23 0.24 0.24 0.24 0.22 0.23 0.28 0.33
1.01 0.87 0.78 0.74 0.67 0.62 0.58 0.60 0.66 0.66 0.66 0.68 0.67 0.67 0.63 0.61 0.60 0.56 0.50 0.44 0.39 0.36 0.35 0.31 0.29 0.25 0.22 0.22 0.23 0.25 0.24 0.21 0.18 0.16 0.15 0.16 0.17 0.19 0.18 0.18 0.21 0.27 0.33
0.98 0.90 0.87 0.87 0.78 0.69 0.62 0.59 0.66 0.69 0.71 0.71 0.68 0.67 0.64 0.60 0.56 0.51 0.48 0.41 0.35 0.29 0.26 0.24 0.23 0.22 0.20 0.21 0.20 0.19 0.23 0.22 0.19 0.16 0.15 0.14 0.12 0.11 0.11 0.13 0.18 0.24 0.28
1.12 1.09 1.12 1.11 0.99 0.86 0.76 0.73 0.74 0.75 0.76 0.79 0.76 0.74 0.66 0.60 0.55 0.45 0.39 0.37 0.34 0.27 0.23 0.20 0.20 0.22 0.21 0.18 0.15 0.15 0.18 0.21 0.21 0.19 0.17 0.13 0.09 0.11 0.13 0.12 0.12 0.13 0.15
1.39 1.39 1.35 1.23 1.11 1.01 0.93 0.85 0.78 0.82 0.86 0.83 0.78 0.70 0.59 0.51 0.47 0.43 0.37 0.32 0.28 0.26 0.24 0.21 0.19 0.20 0.19 0.16 0.12 0.12 0.14 0.18 0.19 0.18 0.18 0.17 0.16 0.13 0.11 0.10 0.10 0.14 0.17
1.37 1.27 1.19 1.14 1.08 0.99 0.91 0.80 0.74 0.72 0.74 0.70 0.65 0.59 0.54 0.50 0.47 0.44 0.41 0.35 0.30 0.25 0.20 0.19 0.19 0.20 0.18 0.12 0.10 0.09 0.11 0.15 0.13 0.12 0.13 0.13 0.14 0.12 0.11 0.10 0.14 0.18 0.21
1.06 1.04 1.00 0.96 0.91 0.84 0.75 0.67 0.62 0.58 0.57 0.55 0.53 0.47 0.45 0.46 0.46 0.40 0.37 0.33 0.29 0.25 0.18 0.17 0.19 0.19 0.18 0.10 0.07 0.06 0.08 0.11 0.10 0.11 0.11 0.11 0.09 0.08 0.08 0.09 0.16 0.23 0.21
0.89 0.87 0.87 0.86 0.74 0.60 0.55 0.54 0.52 0.48 0.41 0.37 0.41 0.42 0.41 0.41 0.40 0.36 0.35 0.34 0.30 0.28 0.24 0.22 0.22 0.19 0.13 0.08 0.05 0.04 0.06 0.08 0.09 0.11 0.14 0.15 0.08 0.06 0.06 0.09 0.16 0.22 0.20
0.76 0.75 0.68 0.61 0.52 0.47 0.48 0.49 0.47 0.38 0.31 0.32 0.38 0.41 0.40 0.34 0.32 0.33 0.35 0.33 0.30 0.27 0.26 0.24 0.21 0.18 0.13 0.08 0.04 0.02 0.02 0.03 0.08 0.13 0.14 0.14 0.11 0.09 0.11 0.14 0.18 0.20 0.27
0.57 0.59 0.53 0.48 0.46 0.46 0.47 0.45 0.40 0.35 0.33 0.35 0.38 0.37 0.34 0.32 0.31 0.31 0.32 0.32 0.28 0.23 0.21 0.20 0.19 0.16 0.15 0.10 0.03 0.02 0.01 0.02 0.06 0.10 0.12 0.14 0.16 0.18 0.27 0.27 0.23 0.29 0.42
0.44 0.46 0.43 0.41 0.43 0.42 0.40 0.38 0.33 0.32 0.36 0.38 0.36 0.34 0.33 0.31 0.29 0.26 0.23 0.24 0.22 0.19 0.17 0.17 0.17 0.16 0.16 0.10 0.04 0.04 0.04 0.04 0.06 0.09 0.17 0.27 0.32 0.35 0.39 0.42 0.45 0.48 0.49
0.45 0.44 0.41 0.39 0.34 0.34 0.31 0.28 0.27 0.28 0.32 0.32 0.30 0.30 0.30 0.27 0.26 0.20 0.17 0.16 0.13 0.08 0.09 0.10 0.10 0.12 0.10 0.05 0.03 0.04 0.05 0.04 0.06 0.09 0.24 0.41 0.46 0.47 0.46 0.44 0.44 0.47 0.45
0.40 0.40 0.35 0.33 0.29 0.26 0.25 0.24 0.22 0.21 0.27 0.29 0.26 0.23 0.22 0.21 0.18 0.18 0.17 0.11 0.06 0.04 0.03 0.02 0.03 0.04 0.06 0.05 0.03 0.03 0.06 0.06 0.10 0.17 0.36 0.46 0.47 0.47 0.43 0.39 0.36 0.36 0.36